Flag for Saint Lucia Weather past 2 weeks in Vieux Fort, Saint Lucia

82 °F

Passing clouds.

Feels Like: 89 °F
Forecast: N/A
Wind: 17 mph from East

Location: Hewanorra International Airport

Current Time: Nov 27, 2015 at 7:00:10 PM

Latest Report: Nov 27, 2015 at 6:00 PM

Visibility: N/A

Pressure: 29.89 "Hg

Humidity: 79%

Dew point: 75 °F

Location of Vieux FortLocation

Historic Weather in Vieux Fort — Graph


Vieux Fort temperature yesterday

Maximum temperature yesterday: 86 °F (at 11:00 AM)
Minimum temperature yesterday: 81 °F (at 12:00 AM)
Average temperature yesterday: 83 °F

Past Weeks' High & Low Weather Summary

High88 °F (Nov 13, 11:00 AM)100% (Nov 22, 11:00 PM)30.09 "Hg (Nov 22, 11:00 PM)
Low75 °F (Nov 20, 8:00 PM)23% (Nov 23, 4:00 AM)29.80 "Hg (Nov 20, 4:00 AM)
Average82 °F76%29.90 "Hg
* Reported Nov 12 5:00 PM — Nov 27 5:00 PM, Vieux Fort, Weather by CustomWeather, © 2015

Note: Actual official high and low records may vary slightly from our data, if they occured in-between our weather recording intervals... More about our weather records


Vieux Fort weather history for previous 24 hours

Time TempWeatherWind HumidityBarometerVisibility
5:00 PM
Fri, Nov 27
84 °FPartly sunny.16 mph74%29.86 "HgN/A
4:00 PM84 °FScattered clouds.17 mph79%29.86 "HgN/A
3:00 PM86 °FScattered clouds.17 mph66%29.86 "HgN/A
2:00 PM86 °FPartly sunny.17 mph66%29.89 "HgN/A
1:00 PM86 °FPartly sunny.18 mph70%29.89 "HgN/A
12:00 PM88 °FScattered clouds.16 mph66%29.92 "HgN/A
11:00 AM88 °FScattered clouds.18 mph66%29.95 "HgN/A
10:00 AM84 °FScattered clouds.18 mph74%29.95 "HgN/A
9:00 AM84 °FPassing clouds.17 mph79%29.95 "HgN/A
8:00 AM82 °FPassing clouds.14 mph79%29.92 "HgN/A
7:00 AM81 °FScattered clouds.12 mph84%29.92 "HgN/A
6:00 AM81 °FPassing clouds.13 mph84%29.89 "HgN/A
5:00 AM81 °FPassing clouds.14 mph79%29.89 "HgN/A
4:00 AM81 °FPassing clouds.15 mph84%29.89 "HgN/A
2:00 AM81 °FPassing clouds.14 mph84%29.89 "HgN/A
1:00 AM82 °FPassing clouds.18 mph79%29.92 "HgN/A
11:00 PM
Thu, Nov 26
82 °FPassing clouds.16 mph79%29.95 "HgN/A
10:00 PM82 °FPassing clouds.17 mph79%29.95 "HgN/A
9:00 PM82 °FPassing clouds.15 mph74%29.92 "HgN/A
8:00 PM82 °FPassing clouds.18 mph79%29.92 "HgN/A
7:00 PM82 °FPassing clouds.16 mph79%N/AN/A
Weather by CustomWeather, © 2015

See weather overviewHow to use our weather pages